sat.trackr.live / text

‹ back to catalog

STARLINK-34142

NORAD 63957 · 2025-099F

PAYLOAD ACTIVE UNKNOWN

§ Identity

Operator
Country
US
Launch date
2025-05-13
Launch site
AFETR
Launch vehicle
Mass (kg)
RCS (m²)

Purposes: comms

External: N2YO · Heavens-Above · Gunter

§ Orbital elements

Epoch: 2026-09-20T00:23:18.199968Z

Period
94.27 min
Inclination
43.0001°
Eccentricity
0.0000159
Mean motion
15.27593315 rev/d
Perigee alt
482.9 km
Apogee alt
483.1 km
Semi-major
6,861.1 km
B*
3.6838e-4
RAAN
158.9715°
Arg perigee
21.4831°
Mean anomaly
338.6027°
Rev number
7,705

§ Raw data

STARLINK-341421 63957U 25099F   26263.01618287  .00009893  00000+0  36838-3 0  99962 63957  43.0001 158.9715 0000159  21.4831 338.6027 15.27593315 77059

JSON: /api/v1/satellites/63957 · /tle

For live sub-satellite position, see the globe view (requires WebGL).

§ Visibility from observer

Set your observer location to see the next 7 days of passes ≥ 10°. The values pass through the URL so the page stays shareable.

No JS? Fill the form by hand. The geolocation button needs JavaScript.